FW4805 Weather Reports


time (UTC)temp
C
wind
direction
speed
KPH
gust
KPH
rain 1hr
cm
rain 24hr
cm
rain mn
cm
humidity
%
barometer
mb
20260906094956 32 65 12.9 38.6 0.00 0.00 0.00 36 1015.7
20260906092957 32 70 19.3 43.5 0.00 0.00 0.00 35 1015.9
20260906091957 32 60 12.9 24.1 0.00 0.00 0.00 35 1015.8
20260906085957 32 78 16.1 27.4 0.00 0.00 0.00 36 1015.9
20260906084957 31 68 12.9 30.6 0.00 0.00 0.00 37 1015.7
20260906083957 31 71 16.1 25.7 0.00 0.00 0.00 38 1015.7
20260906082956 31 60 11.3 27.4 0.00 0.00 0.00 41 1015.7
20260906080956 31 8 9.7 30.6 0.00 0.00 0.00 41 1015.6
20260906075956 31 61 12.9 24.1 0.00 0.00 0.00 39 1015.6
20260906074957 31 67 12.9 25.7 0.00 0.00 0.00 41 1015.6
20260906072957 30 64 14.5 25.7 0.00 0.00 0.00 39 1015.4
20260906071957 30 62 14.5 25.7 0.00 0.00 0.00 41 1015.4
20260906070957 30 68 12.9 32.2 0.00 0.00 0.00 41 1015.3
20260906065957 30 56 11.3 22.5 0.00 0.00 0.00 42 1015.1
20260906063957 30 68 14.5 30.6 0.00 0.00 0.00 40 1014.7
20260906061956 29 58 12.9 25.7 0.00 0.00 0.00 41 1014.6
20260906060957 29 65 16.1 27.4 0.00 0.00 0.00 42 1014.6
20260906055957 29 57 11.3 22.5 0.00 0.00 0.00 43 1014.6
20260906054957 28 71 14.5 32.2 0.00 0.00 0.00 45 1014.5
20260906052957 28 63 12.9 22.5 0.00 0.00 0.00 45 1014.6
20260906051957 28 67 12.9 30.6 0.00 0.00 0.00 45 1014.6
20260906050957 28 54 8.0 22.5 0.00 0.00 0.00 47 1014.7
20260906045958 27 48 12.9 30.6 0.00 0.00 0.00 47 1014.6
20260906044957 27 54 6.4 24.1 0.00 0.00 0.00 48 1014.5
20260906042957 27 54 6.4 25.7 0.00 0.00 0.00 47 1014.2
20260906041957 27 69 4.8 17.7 0.00 0.00 0.00 46 1014.3
20260906040958 26 65 4.8 14.5 0.00 0.00 0.00 46 1014.1
20260906035957 26 40 3.2 22.5 0.00 0.00 0.00 46 1014.2
20260906033957 27 75 6.4 17.7 0.00 0.00 0.00 45 1014.1
20260906032958 27 42 6.4 16.1 0.00 0.00 0.00 43 1014.1
20260906031957 27 344 6.4 20.9 0.00 0.00 0.00 43 1013.9
20260906024957 27 53 4.8 17.7 0.00 0.00 0.00 41 1013.7
20260906023957 27 18 4.8 22.5 0.00 0.00 0.00 42 1013.5
20260906022957 27 27 6.4 16.1 0.00 0.00 0.00 42 1013.5
20260906021957 27 12 4.8 12.9 0.00 0.00 0.00 42 1013.4
20260906020957 27 347 4.8 20.9 0.00 0.00 0.00 43 1013.6
20260906015957 26 57 1.6 12.9 0.00 0.00 0.00 44 1013.6
20260906014957 27 81 3.2 9.7 0.00 0.00 0.00 43 1013.6
20260906013957 26 60 3.2 8.0 0.00 0.00 0.00 43 1013.5
20260906012957 27 80 4.8 12.9 0.00 0.00 0.00 42 1013.6
20260906011957 27 72 6.4 24.1 0.00 0.00 0.00 41 1013.5
20260906010957 27 59 8.0 17.7 0.00 0.00 0.00 41 1013.5
20260906005957 27 17 4.8 16.1 0.00 0.00 0.00 40 1013.6
20260906004957 27 17 3.2 9.7 0.00 0.00 0.00 40 1013.7
20260906003958 27 342 8.0 20.9 0.00 0.00 0.00 40 1013.7
20260906002958 27 314 4.8 17.7 0.00 0.00 0.00 40 1013.8
20260906001957 27 344 6.4 20.9 0.00 0.00 0.00 39 1013.9
20260905234958 27 295 1.6 8.0 0.00 0.00 0.00 38 1013.8
20260905233957 27 320 9.7 20.9 0.00 0.00 0.00 37 1013.9
20260905232957 27 326 9.7 20.9 0.00 0.00 0.00 38 1013.8
20260905230957 27 329 12.9 22.5 0.00 0.00 0.00 39 1013.9
20260905225957 27 326 9.7 25.7 0.00 0.00 0.00 39 1014.0
20260905224957 27 321 12.9 24.1 0.00 0.00 0.00 39 1013.8
20260905223957 27 330 12.9 30.6 0.00 0.00 0.00 38 1014.0
20260905222957 27 324 11.3 30.6 0.00 0.00 0.00 39 1013.9
20260905221957 27 334 6.4 17.7 0.00 0.00 0.00 40 1014.0
20260905220957 27 333 6.4 27.4 0.00 0.00 0.00 40 1014.0
20260905215957 27 355 6.4 16.1 0.00 0.00 0.00 39 1014.0
20260905212957 27 317 8.0 22.5 0.00 0.00 0.00 41 1014.3
20260905211957 27 350 4.8 17.7 0.00 0.00 0.00 41 1014.4
20260905210957 27 330 6.4 20.9 0.00 0.00 0.00 42 1014.5
20260905205959 27 312 9.7 24.1 0.00 0.00 0.00 41 1014.7
20260905204958 27 325 9.7 24.1 0.00 0.00 0.00 38 1014.6
20260905203957 27 340 9.7 25.7 0.00 0.00 0.00 37 1014.6
20260905202957 27 54 6.4 17.7 0.00 0.00 0.00 38 1014.5
20260905200957 27 156 9.7 20.9 0.00 0.00 0.00 39 1014.6
20260905195958 27 138 16.1 27.4 0.00 0.00 0.00 41 1014.4
20260905194958 27 163 9.7 16.1 0.00 0.00 0.00 41 1014.5
20260905193958 27 138 9.7 17.7 0.00 0.00 0.00 42 1014.6
20260905192958 27 126 3.2 12.9 0.00 0.00 0.00 43 1014.7
20260905191958 27 20 8.0 20.9 0.00 0.00 0.00 43 1014.7
20260905190958 27 92 9.7 22.5 0.00 0.00 0.00 43 1014.7
20260905185958 27 93 8.0 16.1 0.00 0.00 0.00 44 1014.7
20260905184957 27 115 9.7 20.9 0.00 0.00 0.00 44 1014.6
20260905183957 27 130 4.8 17.7 0.00 0.00 0.00 44 1014.7
20260905182957 27 123 8.0 20.9 0.00 0.00 0.00 46 1014.7
20260905181957 27 90 14.5 24.1 0.00 0.00 0.00 44 1014.6
20260905174957 27 87 6.4 22.5 0.00 0.00 0.00 45 1014.6
20260905173957 27 90 8.0 30.6 0.00 0.00 0.00 45 1014.6
20260905172957 27 58 11.3 20.9 0.00 0.00 0.00 46 1014.3
20260905165957 27 41 11.3 30.6 0.00 0.00 0.00 44 1014.2
20260905164957 27 32 9.7 24.1 0.00 0.00 0.00 48 1013.9
20260905163957 27 42 8.0 30.6 0.00 0.00 0.00 49 1014.3
20260905161957 27 19 9.7 27.4 0.00 0.00 0.00 52 1014.4
20260905160957 27 39 11.3 37.0 0.00 0.00 0.00 49 1014.3
20260905155958 27 47 12.9 24.1 0.00 0.00 0.00 51 1014.4
20260905153958 27 31 14.5 32.2 0.00 0.00 0.00 50 1014.3
20260905152958 27 50 11.3 25.7 0.00 0.00 0.00 49 1014.3
20260905150957 28 55 12.9 30.6 0.00 0.00 0.00 48 1014.3
20260905145958 28 52 14.5 33.8 0.00 0.00 0.00 48 1014.3
20260905144958 28 27 17.7 37.0 0.00 0.00 0.00 43 1014.4
20260905143958 28 39 16.1 33.8 0.00 0.00 0.00 44 1014.4
20260905142958 28 26 17.7 32.2 0.00 0.00 0.00 47 1014.2
20260905141958 28 37 17.7 33.8 0.00 0.00 0.00 50 1014.2
20260905135958 28 29 17.7 33.8 0.00 0.00 0.00 47 1014.4
20260905134958 28 33 16.1 30.6 0.00 0.00 0.00 45 1014.2
20260905133958 28 51 16.1 27.4 0.00 0.00 0.00 45 1014.4
20260905132958 28 59 16.1 41.8 0.00 0.00 0.00 45 1014.5
20260905131958 28 355 17.7 32.2 0.00 0.00 0.00 46 1014.6
20260905130958 28 48 17.7 30.6 0.00 0.00 0.00 51 1014.7
20260905125958 28 61 12.9 38.6 0.00 0.00 0.00 49 1014.7
20260905124958 28 66 17.7 38.6 0.00 0.00 0.00 46 1014.8
20260905122958 28 63 24.1 46.7 0.00 0.00 0.00 42 1015.0
20260905120958 28 69 22.5 49.9 0.00 0.00 0.00 42 1015.1
20260905115958 28 67 17.7 46.7 0.00 0.00 0.00 43 1015.2
20260905114957 28 74 17.7 38.6 0.00 0.00 0.00 44 1015.2
20260905112957 28 62 20.9 37.0 0.00 0.00 0.00 47 1015.0
20260905111958 28 62 17.7 43.5 0.00 0.00 0.00 47 1015.1
20260905110957 28 359 17.7 41.8 0.00 0.00 0.00 49 1014.9
20260905104957 28 26 14.5 33.8 0.00 0.00 0.00 49 1015.0
20260905103957 28 68 16.1 37.0 0.00 0.00 0.00 48 1015.0
20260905101958 28 49 16.1 38.6 0.00 0.00 0.00 50 1015.0
20260905100957 28 41 12.9 32.2 0.00 0.00 0.00 48 1015.0
20260905095957 28 43 17.7 33.8 0.00 0.00 0.00 51 1014.9